Regional Weather Roundup
Issued by NWS Newport/Morehead, NC

Current Version | Previous Version | Graphics & Text | Print | Product List | Glossary On
Versions: 1 2 3 4 5 6 7 8 9 10 11 12 13 14 15 16 17 18 19 20 21 22 23 24 25 26 27 28 29 30 31 32 33 34 35 36 37 38 39 40 41 42 43 44 45 46 47 48 49 50
420 ASUS42 KMHX 250426 RWRMHX WEATHER ROUNDUP FOR EASTERN NORTH CAROLINA NATIONAL WEATHER SERVICE NEWPORT/MOREHEAD CITY NC 1200 AM EDT TUE JUL 25 2017 NOTE: "FAIR" INDICATES FEW OR NO CLOUDS BELOW 12,000 FEET WITH NO SIGNIFICANT WEATHER AND/OR OBSTRUCTIONS TO VISIBILITY NCZ015>017-031-032-045>047-102-103-250500- NORTH COAST CITY SKY/WX TMP DP RH WIND PRES REMARKS EDENTON PTCLDY 84 76 77 CALM 29.94R ELIZABETH CITY CLEAR 81 77 88 SW8 29.92R KITTY HAWK CLEAR 81 78 91 SW7 29.93R MANTEO CLEAR 80 78 92 W12 29.94S $$ NCZ045>047-081-094-103-104-250500- CENTRAL COAST CITY SKY/WX TMP DP RH WIND PRES REMARKS FRISCO CLEAR 79 75 87 SW12G18 29.96R $$ NCZ095-097-098-100-101-250500- SOUTHERN COAST CITY SKY/WX TMP DP RH WIND PRES REMARKS BEAUFORT CLOUDY 81 80 97 SW14 29.98R CEDAR ISLAND NOT AVBL JACKSONVILLE PTCLDY 79 77 94 SW7 29.97R PINEY ISLAND MOCLDY N/A N/A N/A S9 29.96S WILMINGTON CLOUDY 78 72 81 W9 29.99R $$ NCZ011>013-027>030-043-044-078>080-089-090>093-098-250500- COASTAL PLAIN CITY SKY/WX TMP DP RH WIND PRES REMARKS AHOSKIE N/A 76 74 95 CALM 29.93S CLINTON MOCLDY 78 74 90 S3 29.98R ELIZABETHTOWN NOT AVBL GOLDSBORO CLOUDY 80 80 98 S5 29.94S GREENVILLE PTCLDY 81 73 78 SW6 29.97R HAVELOCK MOCLDY 80 75 84 SW6 29.97S KENANSVILLE MOCLDY 77 72 83 SW5 29.98R KINSTON PTCLDY 78 75 89 SW5 29.97R NEW BERN CLOUDY 79 77 94 SW6 29.97S RICHLANDS MOCLDY 77 75 93 SW8 29.98R ROCKY MOUNT CLOUDY 79 76 90 SW5 29.94S WASHINGTON PTCLDY 80 76 87 SW6 29.95S WHITEVILLE CLOUDY 75 72 89 CALM 29.99R $$ AMZ130-135-150-152-154-156-158-170-250-252-270-ANZ085-086-088-633-658-670-250500- MARINE OBSERVATIONS STATION/POSITION TIME TEMP WIND PRES WAVE SWELL AIR SEA DIR/SP/G HT/PER HT/PER (UTC) (F) (DEG/KT/KT) (MB) (FT/S) (FT/S) CHESAPEAKE LIGHT NOT AVBL 64 E VA BEACH 0350 80 79 220/ 10/ 12 1013.2 5/ 7 3/ 7 DUCK 0400 83 66 210/ 13/ 15 1013.0 2 E DUCK 0400 73 N/A 2/11 OREGON INLET 0400 80 83 220/ 14/ 16 1013.6 13E OREGON INLT 0348 70 N/A 4/ 5 2/ 9 HATTERAS CG 0400 78 79 240/ 10/ 14 1014.6 DIAMOND BUOY 0350 82 84 240/ 21/ 27 1014.3 7/ 6 2/10 CAPE LOOKOUT 0400 80 220/ 11/ 14 1014.7 BEAUFORT LAB 0400 81 80 220/ 5/ 9 1014.4 30 SE NEW RVR IN 0408 81 83 240/ 19/ 25 1015.3 30 SE NEW RVR IN 0413 83 N/A 6/ 6 27 SE WRIGHTSVLE 0408 82 83 220/ 16/ 21 1015.4 5 SE WRIGHTSVLE 0308 81 81 250/ 10/ 14 1015.3 225 S CAPE HAT 0350 83 83 210/ 14/ 17 1019.2 5/ 7 2/11 41 SE CHARLESTON 0410 82 82 210/ 16/ 21 1015.4 $$

USA.gov is the U.S. government's official web portal to all federal, state and local government web resources and services.